Wind_Speed
23 23 23 23 23 23 24 25 25 25 25 26 27 27 28 29 29 30 30 31 31 31 32 32 32 32 32 32 32 31 31 31 31 30 30 31 33 33
23 23 23 24 24 24 24 24 25 25 25 25 25 26 26 26 27 29 29 30 30 30 31 32 32 33 33 33 32 31 31 31 31 31 31 32 33 33
23 23 23 23 23 23 23 24 24 24 23 23 24 25 25 25 26 26 28 28 29 29 29 30 31 32 32 32 31 31 31 30 30 31 30 31 32 32
22 22 22 23 22 22 22 23 23 22 22 22 22 23 24 24 24 25 26 27 27 28 28 29 30 30 30 30 30 29 29 29 29 30 30 30 30 31
21 21 21 22 21 21 21 21 21 21 21 21 21 21 22 23 23 24 24 25 25 26 27 27 28 28 28 28 29 29 28 29 29 29 29 29 30 30
19 19 19 20 19 19 19 19 20 20 20 19 20 20 21 21 22 22 22 22 23 23 24 25 26 26 26 27 27 28 28 29 29 29 29 29 29 30
18 18 18 18 17 17 17 17 18 18 18 19 19 19 19 19 20 20 20 20 21 21 22 22 23 24 24 24 25 26 26 26 27 27 27 28 28 28
16 15 15 15 14 15 15 16 16 17 17 17 18 18 18 18 18 19 18 19 19 19 20 20 20 21 22 23 23 24 24 25 25 25 26 27 27 27
14 14 14 14 13 13 14 14 14 15 16 17 16 16 16 17 17 17 17 17 17 18 18 19 20 20 21 22 22 22 22 23 23 23 24 24 24 24
13 13 13 12 12 12 12 12 12 13 14 14 14 14 15 15 15 16 16 16 16 16 17 18 19 19 20 20 21 21 21 22 22 22 23 23 23 24
13 13 13 13 12 11 11 10 11 11 12 12 12 12 13 14 14 14 14 15 16 16 16 17 18 19 19 19 20 20 21 21 22 22 22 22 23 24
13 13 13 12 11 10 9 9 9 10 10 10 11 11 11 11 12 13 13 14 15 15 15 16 16 17 17 18 19 20 21 21 21 22 22 22 23 23
13 13 11 10 10 9 8 8 8 8 9 10 11 11 12 12 13 13 13 13 14 15 16 16 16 17 17 18 18 19 19 20 20 20 21 21 22 23
13 12 10 10 9 8 8 8 8 8 9 9 9 10 10 11 11 12 13 14 14 15 16 16 17 17 18 18 18 18 18 18 19 19 19 19 20 21
12 11 10 9 9 8 8 7 7 7 8 8 8 9 10 10 11 12 13 13 14 15 15 16 16 17 18 18 18 17 17 17 18 18 19 19 20 20
12 11 10 10 9 8 8 7 7 6 7 7 8 9 10 10 11 11 12 12 14 15 15 15 16 17 17 18 18 18 18 18 18 18 19 19 20 21
12 11 11 10 10 9 8 8 7 7 8 8 8 9 10 10 11 11 12 12 14 15 15 15 15 15 16 16 17 18 18 18 19 19 20 20 20 21
12 12 11 10 10 10 9 9 9 8 9 9 9 9 10 10 11 12 12 12 12 12 13 13 14 15 15 16 17 17 18 19 19 20 21 21 21 22
12 12 11 11 11 11 11 10 10 9 9 10 10 10 10 10 10 11 12 12 12 13 14 15 15 16 17 17 17 18 19 19 20 20 21 22 23 23
12 12 12 12 12 11 11 11 10 10 11 11 10 11 11 11 11 12 13 13 13 14 14 15 16 17 17 18 18 18 19 19 20 21 22 23 24 26
13 13 13 13 12 12 12 12 12 12 12 12 12 12 12 13 14 14 14 15 15 15 16 16 17 18 19 20 20 20 21 22 23 24 24 25 26 26
14 14 13 13 13 13 13 13 13 13 13 13 13 14 14 15 15 15 15 16 16 17 17 18 19 20 20 21 22 22 23 23 24 25 25 26 27 27
15 15 15 15 15 15 14 14 15 15 16 16 16 16 16 16 16 16 16 17 17 18 19 19 19 20 21 22 22 23 23 24 25 26 26 26 27 27
Wind_Direction
287 285 281 278 278 277 274 271 268 267 265 263 263 262 261 259 257 256 256 255 254 254 255 255 255 256 256 257 257 257 258 258 259 259 259 259 261 261
288 285 282 280 277 274 272 270 268 267 265 264 262 261 261 260 258 256 254 254 254 255 255 256 256 256 257 258 259 258 258 259 260 261 262 262 262 263
290 287 284 283 279 274 273 271 268 267 265 264 264 262 261 260 260 258 255 255 255 255 255 256 256 256 257 257 258 258 259 259 261 261 261 263 263 264
292 289 285 283 280 277 275 271 270 267 267 266 265 264 262 261 259 259 256 255 255 256 255 255 256 256 256 256 257 258 258 260 261 261 262 262 264 265
297 293 289 287 283 278 275 272 270 268 267 266 267 267 264 262 260 261 260 257 256 256 255 255 256 257 257 256 257 258 260 261 262 262 262 264 264 266
301 297 293 290 285 280 277 274 271 269 268 267 266 266 265 265 262 261 259 258 257 256 255 255 256 257 257 257 258 260 262 262 261 262 264 265 266 268
303 300 297 292 287 283 279 276 272 270 269 267 265 265 265 264 262 259 258 257 258 259 258 257 256 257 257 257 259 261 262 262 262 263 265 266 267 269
306 303 299 297 294 287 281 278 274 271 270 268 265 263 260 259 259 258 258 257 257 257 257 257 257 257 259 260 261 260 261 265 266 265 266 267 267 267
308 306 304 301 296 288 284 281 277 274 270 269 265 260 257 255 255 255 255 254 254 254 254 256 257 258 261 261 260 261 262 266 268 267 268 268 268 268
320 316 313 309 304 295 291 285 280 277 274 270 267 261 257 254 253 252 251 252 252 253 256 258 259 261 262 260 259 262 265 267 268 269 270 269 269 270
325 321 318 313 307 300 295 290 284 282 277 270 272 268 260 254 253 254 253 252 254 258 259 259 260 263 263 261 261 263 266 267 268 268 268 268 269 271
330 326 321 316 312 305 298 292 289 284 278 271 270 270 263 258 255 256 256 255 258 259 260 260 261 263 263 262 263 264 266 266 266 265 266 269 271 273
333 330 327 321 316 314 308 299 293 290 284 276 270 270 270 266 258 256 256 257 259 259 262 264 264 263 263 264 264 265 267 266 265 267 268 269 271 273
340 337 333 330 325 323 320 311 300 294 288 282 275 271 270 269 264 261 257 259 261 260 262 264 264 265 266 266 266 265 266 267 268 269 268 270 273 274
350 348 346 345 342 336 330 323 312 303 295 287 281 277 276 271 268 267 266 264 261 260 263 264 265 267 268 268 267 266 266 268 268 270 271 273 276 278
1 1 357 353 351 349 345 340 329 318 309 299 290 284 282 277 273 272 273 271 269 267 264 264 265 267 266 265 266 266 267 269 271 273 274 278 281 282
3 2 358 352 350 348 345 339 330 320 313 305 298 291 286 281 277 275 275 276 273 269 266 266 265 265 265 267 269 271 272 273 274 275 277 278 280 281
360 358 356 354 352 349 343 338 334 326 318 310 306 302 295 288 284 280 277 277 275 271 270 271 274 275 275 274 274 275 275 276 277 277 278 280 281 283
357 357 355 351 350 348 343 339 335 330 325 322 317 313 309 304 297 288 283 279 277 275 274 274 275 277 277 277 277 277 277 278 280 280 281 282 284 285
351 350 348 346 344 343 340 336 332 329 326 323 319 316 313 308 302 295 290 285 282 280 279 277 277 278 278 279 279 279 280 282 284 285 285 286 287 287
346 345 343 341 340 338 335 332 329 325 322 319 315 313 310 309 306 301 296 293 287 284 282 280 280 280 279 279 280 281 282 283 285 287 287 288 289 289
336 336 337 336 334 332 330 327 324 323 320 316 313 311 309 307 304 301 298 296 292 290 287 285 282 281 281 282 282 283 284 285 286 286 287 289 290 291
328 328 328 327 326 325 323 322 319 316 315 313 311 310 309 307 304 301 298 295 294 293 291 288 285 285 284 284 284 285 286 287 288 288 289 290 291 291
Height
5746 5744 5743 5742 5742 5741 5740 5740 5740 5740 5740 5740 5740 5741 5742 5743 5744 5745 5747 5749 5751 5753 5754 5756 5758 5760 5762 5763 5765 5766 5768 5769 5770 5771 5772 5773 5774 5775
5739 5738 5737 5736 5735 5734 5733 5733 5733 5733 5733 5733 5734 5734 5734 5735 5736 5738 5739 5741 5743 5744 5746 5748 5750 5752 5754 5755 5757 5758 5760 5761 5762 5763 5764 5765 5766 5766
5733 5731 5730 5729 5728 5727 5727 5726 5726 5726 5726 5727 5727 5727 5727 5728 5729 5730 5732 5733 5735 5737 5738 5740 5742 5744 5745 5747 5749 5750 5751 5753 5754 5755 5756 5757 5757 5758
5727 5725 5723 5722 5721 5720 5720 5719 5719 5719 5720 5720 5720 5720 5721 5721 5722 5723 5724 5726 5727 5729 5730 5732 5734 5735 5737 5739 5741 5742 5743 5745 5746 5747 5748 5749 5749 5749
5721 5719 5717 5716 5714 5714 5713 5713 5713 5713 5713 5714 5714 5714 5714 5715 5716 5717 5718 5719 5720 5722 5723 5725 5726 5728 5729 5731 5733 5734 5735 5737 5738 5739 5739 5740 5741 5741
5715 5713 5711 5710 5708 5707 5707 5707 5706 5707 5707 5707 5708 5708 5708 5709 5710 5711 5712 5712 5714 5715 5716 5718 5719 5720 5722 5723 5725 5726 5727 5728 5729 5730 5731 5732 5732 5733
5711 5708 5706 5705 5703 5702 5702 5701 5701 5701 5701 5701 5702 5702 5703 5703 5704 5705 5706 5707 5708 5709 5710 5711 5712 5714 5715 5716 5717 5718 5719 5720 5721 5722 5723 5724 5724 5725
5706 5704 5702 5700 5699 5697 5697 5696 5696 5696 5696 5696 5696 5697 5697 5698 5699 5700 5701 5702 5703 5704 5705 5705 5706 5707 5708 5709 5710 5711 5712 5713 5714 5714 5715 5716 5716 5716
5702 5700 5698 5696 5694 5693 5692 5692 5691 5691 5691 5691 5691 5692 5692 5693 5694 5695 5695 5696 5698 5699 5699 5700 5701 5701 5702 5703 5704 5705 5706 5707 5707 5707 5708 5708 5708 5708
5699 5697 5694 5692 5691 5689 5688 5688 5687 5687 5686 5686 5686 5687 5687 5688 5689 5690 5691 5692 5693 5694 5695 5695 5695 5696 5697 5697 5698 5699 5700 5700 5700 5700 5701 5701 5701 5701
5697 5694 5692 5690 5688 5686 5685 5684 5684 5683 5682 5682 5682 5682 5683 5684 5685 5686 5686 5687 5688 5689 5690 5690 5691 5691 5691 5692 5692 5693 5693 5694 5694 5694 5694 5694 5694 5693
5695 5692 5689 5687 5685 5684 5682 5681 5680 5680 5679 5679 5679 5680 5680 5680 5681 5682 5682 5683 5684 5685 5685 5686 5686 5686 5687 5687 5687 5687 5687 5687 5687 5687 5687 5687 5686 5686
5693 5690 5687 5685 5683 5681 5680 5679 5678 5677 5677 5676 5676 5676 5676 5677 5677 5678 5678 5679 5680 5680 5681 5681 5681 5681 5682 5682 5682 5681 5681 5681 5681 5680 5680 5680 5679 5679
5692 5689 5686 5684 5682 5680 5679 5677 5676 5675 5675 5674 5674 5673 5673 5673 5673 5673 5674 5675 5675 5676 5676 5676 5676 5676 5676 5676 5676 5676 5676 5675 5675 5674 5674 5673 5672 5671
5691 5688 5686 5683 5681 5679 5677 5676 5675 5674 5673 5672 5672 5671 5671 5671 5670 5670 5670 5670 5670 5671 5671 5671 5671 5671 5671 5671 5670 5670 5670 5669 5669 5668 5668 5667 5666 5664
5691 5688 5686 5683 5681 5679 5677 5675 5674 5673 5671 5670 5670 5669 5668 5668 5667 5667 5666 5666 5666 5666 5666 5666 5666 5666 5665 5665 5665 5664 5664 5663 5663 5662 5661 5660 5659 5657
5692 5689 5686 5684 5681 5679 5677 5675 5673 5672 5670 5669 5668 5667 5666 5665 5664 5663 5663 5662 5662 5662 5661 5661 5661 5660 5660 5660 5659 5659 5658 5657 5656 5655 5655 5654 5652 5651
5692 5689 5686 5684 5681 5679 5676 5674 5673 5671 5669 5667 5666 5664 5663 5662 5661 5660 5659 5658 5658 5657 5657 5657 5656 5656 5655 5655 5654 5653 5652 5651 5650 5649 5648 5647 5645 5644
5692 5689 5686 5684 5681 5678 5676 5674 5672 5670 5668 5666 5664 5662 5661 5659 5658 5657 5656 5655 5654 5653 5653 5652 5651 5651 5650 5650 5649 5647 5646 5645 5644 5643 5641 5640 5638 5636
5692 5689 5686 5683 5680 5678 5675 5673 5671 5669 5667 5664 5662 5660 5658 5657 5655 5653 5652 5651 5650 5649 5648 5647 5646 5645 5644 5644 5643 5642 5640 5639 5638 5636 5634 5632 5630 5628
5691 5688 5685 5682 5680 5677 5674 5672 5669 5667 5665 5662 5660 5658 5656 5654 5652 5650 5648 5647 5645 5644 5643 5642 5641 5639 5638 5637 5636 5635 5634 5632 5630 5628 5627 5624 5622 5619
5690 5687 5684 5681 5678 5675 5673 5670 5667 5665 5662 5660 5657 5655 5652 5650 5648 5645 5644 5642 5640 5638 5637 5636 5634 5633 5632 5630 5629 5628 5626 5624 5622 5620 5618 5616 5613 5611
5688 5685 5682 5679 5676 5673 5670 5667 5665 5662 5659 5656 5654 5651 5648 5646 5643 5641 5639 5637 5635 5633 5631 5629 5628 5626 5625 5623 5621 5620 5618 5616 5614 5612 5610 5607 5605 5602